KF4PPJ Weather Reports


Display with metric or nautical units.
time (UTC)temp
F
wind
direction
speed
MPH
gust
MPH
rain 1hr
in
rain 24hr
in
rain mn
in
humidity
%
barometer
mb
20260503002048 77 155 2.0 6.0 0.00 0.00 0.00 45 1015.6
20260503001543 77 160 1.0 5.0 0.00 0.00 0.00 45 1015.6
20260503001041 77 164 4.0 6.0 0.00 0.00 0.00 45 1015.7
20260503000538 77 115 2.0 7.0 0.00 0.00 0.00 45 1015.6
20260503000035 77 76 4.0 7.0 0.00 0.00 0.00 45 1015.8
20260502235532 76 218 2.0 3.0 0.00 0.00 0.00 45 1015.9
20260502235030 76 218 3.0 5.0 0.00 0.00 0.00 45 1015.8
20260502234526 75 151 1.0 3.0 0.00 0.00 0.00 45 1015.8
20260502234023 76 25 5.0 8.0 0.00 0.00 0.00 45 1015.9
20260502233518 76 112 2.0 9.0 0.00 0.00 0.00 45 1016.1
20260502233016 76 170 3.0 5.0 0.00 0.00 0.00 44 1016.2
20260502232512 76 11 5.0 7.0 0.00 0.00 0.00 44 1016.2
20260502232009 76 212 3.0 5.0 0.00 0.00 0.00 43 1016.4
20260502231506 76 246 4.0 8.0 0.00 0.00 0.00 43 1016.2
20260502231004 75 113 2.0 7.0 0.00 0.00 0.00 44 1016.6
20260502230502 76 40 3.0 6.0 0.00 0.00 0.00 43 1016.6
20260502230000 76 185 3.0 7.0 0.00 0.00 0.00 43 1016.8
20260502225455 76 176 0.0 6.0 0.00 0.00 0.00 44 1016.8
20260502224952 76 173 5.0 7.0 0.00 0.00 0.00 45 1016.7
20260502224449 77 143 3.0 5.0 0.00 0.00 0.00 45 1016.7
20260502223946 76 220 3.0 7.0 0.00 0.00 0.00 46 1016.7
20260502223444 75 169 5.0 7.0 0.00 0.00 0.00 47 1016.8
20260502222941 75 201 3.0 6.0 0.00 0.00 0.00 48 1016.9
20260502222439 74 145 2.0 6.0 0.00 0.00 0.00 50 1017.0
20260502221934 74 237 7.0 13.0 0.00 0.00 0.00 50 1017.2
20260502221431 75 124 1.0 7.0 0.00 0.00 0.00 51 1017.2
20260502220928 74 78 2.0 5.0 0.00 0.00 0.00 55 1017.0
20260502220423 74 314 2.0 6.0 0.00 0.00 0.00 52 1017.0
20260502215920 74 173 3.0 11.0 0.00 0.00 0.00 52 1017.3
20260502215418 74 259 5.0 7.0 0.00 0.00 0.00 52 1017.2
20260502214914 74 194 2.0 7.0 0.00 0.00 0.00 53 1017.1
20260502214411 73 312 4.0 7.0 0.00 0.00 0.00 54 1017.5
20260502213909 73 99 3.0 6.0 0.00 0.00 0.00 53 1017.5
20260502213405 73 317 3.0 8.0 0.00 0.00 0.00 54 1017.1
20260502212904 73 206 2.0 8.0 0.00 0.00 0.00 53 1017.4
20260502212403 72 164 1.0 6.0 0.00 0.00 0.00 55 1017.4
20260502211859 73 295 6.0 9.0 0.00 0.00 0.00 53 1017.5
20260502211359 71 154 4.0 8.0 0.00 0.00 0.00 56 1017.5
20260502210858 73 355 9.0 10.0 0.00 0.00 0.00 55 1017.7
20260502210354 73 25 5.0 7.0 0.00 0.00 0.00 54 1017.6
20260502205852 72 189 1.0 5.0 0.00 0.00 0.00 55 1017.7
20260502205347 73 9 2.0 5.0 0.00 0.00 0.00 55 1017.6
20260502204845 73 167 1.0 3.0 0.00 0.00 0.00 53 1017.9
20260502204342 73 270 4.0 5.0 0.00 0.00 0.00 54 1017.9
20260502203839 72 16 4.0 13.0 0.00 0.00 0.00 56 1018.0
20260502203337 72 197 3.0 9.0 0.00 0.00 0.00 56 1017.9
20260502202833 71 77 5.0 10.0 0.00 0.00 0.00 56 1017.8
20260502202330 71 356 5.0 9.0 0.00 0.00 0.00 56 1018.1
20260502201828 71 327 9.0 10.0 0.00 0.00 0.00 57 1018.1
20260502201324 71 203 1.0 8.0 0.00 0.00 0.00 57 1018.3
20260502200820 71 126 3.0 7.0 0.00 0.00 0.00 57 1018.4
20260502200316 69 251 2.0 7.0 0.00 0.00 0.00 61 1018.3
20260502195815 69 209 2.0 7.0 0.00 0.00 0.00 60 1018.2
20260502195311 70 28 7.0 13.0 0.00 0.00 0.00 58 1018.4
20260502194808 71 22 5.0 8.0 0.00 0.00 0.00 58 1018.3
20260502194304 69 161 1.0 3.0 0.00 0.00 0.00 61 1018.3
20260502193800 68 165 3.0 8.0 0.00 0.00 0.00 62 1018.4
20260502193258 67 210 2.0 10.0 0.00 0.00 0.00 64 1018.7
20260502192757 64 135 3.0 6.0 0.00 0.00 0.00 69 1018.6
20260502192255 63 158 2.0 5.0 0.00 0.00 0.00 71 1019.0
20260502191753 62 185 2.0 2.0 0.00 0.00 0.00 72 1018.9
20260502191250 62 145 1.0 6.0 0.00 0.00 0.00 73 1019.0
20260502190747 61 218 2.0 7.0 0.00 0.00 0.00 74 1019.2
20260502190245 61 205 3.0 5.0 0.00 0.00 0.00 74 1019.2
20260502185744 60 182 5.0 5.0 0.00 0.00 0.00 74 1019.3
20260502185241 60 150 2.0 6.0 0.00 0.00 0.00 74 1019.3
20260502184737 64 218 7.0 10.0 0.00 0.00 0.00 70 1019.4
20260502184233 64 243 9.0 11.0 0.00 0.00 0.00 67 1019.2
20260502183730 64 238 6.0 9.0 0.00 0.00 0.00 67 1019.3
20260502183226 63 268 2.0 5.0 0.00 0.00 0.00 70 1019.3
20260502182721 61 202 4.0 7.0 0.00 0.00 0.00 74 1019.4
20260502182217 59 223 3.0 6.0 0.00 0.00 0.00 77 1019.2
20260502181714 58 139 1.0 3.0 0.00 0.00 0.00 78 1019.5
20260502181214 60 176 1.0 6.0 0.00 0.00 0.00 75 1019.4
20260502180710 62 80 2.0 5.0 0.00 0.00 0.00 70 1019.4
20260502180208 62 143 2.0 2.0 0.00 0.00 0.00 71 1019.3
20260502170126 56 189 2.0 3.0 0.00 0.00 0.00 81 1019.7
20260502164112 54 150 4.0 7.0 0.00 0.00 0.00 85 1019.9
20260502163609 54 202 3.0 5.0 0.00 0.00 0.00 85 1019.9
20260502163105 54 204 1.0 2.0 0.00 0.00 0.00 86 1019.8
20260502162602 53 175 2.0 3.0 0.00 0.00 0.00 87 1020.1
20260502162059 53 175 2.0 2.0 0.00 0.00 0.00 88 1019.9
20260502161556 53 153 3.0 3.0 0.00 0.00 0.00 88 1019.8
20260502161053 53 175 3.0 3.0 0.00 0.00 0.00 89 1019.9
20260502160551 52 148 1.0 2.0 0.00 0.00 0.00 90 1020.0
20260502152004 52 156 0.0 0.0 0.00 0.00 0.00 91 1019.7
20260502151501 52 162 0.0 2.0 0.00 0.00 0.00 92 1019.7
20260502150958 52 160 0.0 0.0 0.00 0.00 0.00 92 1019.8
20260502150455 52 155 0.0 1.0 0.00 0.00 0.00 92 1020.0
20260502130341 50 153 1.0 1.0 0.00 0.00 0.00 93 1019.8
20260502123323 50 154 0.0 0.0 0.00 0.00 0.00 93 1019.7
20260502122820 50 159 2.0 2.0 0.00 0.00 0.00 93 1020.0
20260502122316 50 154 1.0 2.0 0.00 0.00 0.00 93 1019.9
20260502121815 50 162 0.0 0.0 0.00 0.00 0.00 93 1019.8
20260502121312 50 156 0.0 0.0 0.00 0.00 0.00 93 1019.9
20260502120809 50 170 0.0 0.0 0.00 0.00 0.00 93 1020.1
20260502120305 50 156 0.0 0.0 0.00 0.00 0.00 92 1019.8
20260502115803 50 107 1.0 2.0 0.00 0.00 0.00 92 1020.0
20260502115300 50 118 0.0 1.0 0.00 0.00 0.00 92 1019.9
20260502114755 50 144 0.0 1.0 0.00 0.00 0.00 92 1019.5
20260502114253 50 153 0.0 0.0 0.00 0.00 0.00 91 1020.0
20260502113750 51 153 0.0 0.0 0.00 0.00 0.00 91 1019.9
20260502113248 51 144 1.0 1.0 0.00 0.00 0.00 91 1019.6
20260502112746 51 173 1.0 1.0 0.00 0.00 0.00 91 1020.0
20260502112243 51 158 0.0 0.0 0.00 0.00 0.00 91 1019.8
20260502111740 51 167 0.0 1.0 0.00 0.00 0.00 91 1020.0
20260502111237 51 142 0.0 1.0 0.00 0.00 0.00 91 1020.3
20260502110735 51 183 2.0 5.0 0.00 0.00 0.00 91 1020.1
20260502110232 51 177 1.0 2.0 0.00 0.00 0.00 91 1020.1
20260502105730 51 178 2.0 3.0 0.00 0.00 0.00 92 1020.6
20260502105226 51 142 5.0 7.0 0.00 0.00 0.00 93 1020.6
20260502104724 51 168 2.0 6.0 0.00 0.00 0.00 94 1020.5
20260502104221 50 153 1.0 2.0 0.00 0.00 0.00 94 1020.4
20260502103719 50 157 0.0 0.0 0.00 0.00 0.00 94 1020.3
20260502103217 50 156 0.0 0.0 0.00 0.00 0.00 93 1020.4
20260502102713 50 150 0.0 0.0 0.00 0.00 0.00 93 1019.8
20260502102210 50 160 0.0 1.0 0.00 0.00 0.00 93 1019.5
20260502101708 50 150 0.0 1.0 0.00 0.00 0.00 93 1019.6
20260502101206 50 149 0.0 0.0 0.00 0.00 0.00 92 1019.7
20260502100704 50 149 0.0 0.0 0.00 0.00 0.00 92 1019.4
20260502100202 50 153 1.0 1.0 0.00 0.00 0.00 92 1019.6
20260502091136 52 163 1.0 2.0 0.00 0.00 0.00 89 1019.4
20260502090633 52 157 0.0 0.0 0.00 0.00 0.00 89 1019.6
20260502090130 53 157 1.0 1.0 0.00 0.00 0.00 89 1019.6
20260502071522 55 160 1.0 1.0 0.00 0.00 0.00 82 1019.5
20260502071020 55 159 1.0 1.0 0.00 0.00 0.00 81 1019.3
20260502070517 55 154 0.0 0.0 0.00 0.00 0.00 80 1019.6
20260502070015 55 157 0.0 0.0 0.00 0.00 0.00 79 1019.3
20260502065514 56 157 0.0 0.0 0.00 0.00 0.00 78 1019.2
20260502065011 56 163 0.0 0.0 0.00 0.00 0.00 77 1019.2
20260502064509 57 163 0.0 1.0 0.00 0.00 0.00 76 1019.3
20260502064006 57 153 0.0 0.0 0.00 0.00 0.00 76 1019.2
20260502063504 57 147 1.0 1.0 0.00 0.00 0.00 74 1019.3
20260502063001 57 155 1.0 2.0 0.00 0.00 0.00 75 1019.2
20260502062458 57 141 0.0 1.0 0.00 0.00 0.00 74 1019.0
20260502061957 57 106 2.0 2.0 0.00 0.00 0.00 75 1018.9
20260502061454 57 131 0.0 2.0 0.00 0.00 0.00 74 1019.1
20260502060950 57 147 0.0 1.0 0.00 0.00 0.00 77 1019.3
20260502060446 57 173 1.0 1.0 0.00 0.00 0.00 77 1019.1
20260502055942 57 123 1.0 2.0 0.00 0.00 0.00 77 1019.0
20260502055441 57 157 0.0 0.0 0.00 0.00 0.00 76 1019.0
20260502054940 57 147 0.0 0.0 0.00 0.00 0.00 76 1019.0
20260502054438 57 160 0.0 0.0 0.00 0.00 0.00 75 1018.7
20260502053935 58 160 0.0 1.0 0.00 0.00 0.00 74 1018.9
20260502053432 58 190 1.0 1.0 0.00 0.00 0.00 73 1019.1
20260502052930 59 169 2.0 2.0 0.00 0.00 0.00 73 1018.7
20260502052428 59 163 0.0 3.0 0.00 0.00 0.00 72 1018.6
20260502051926 59 178 0.0 5.0 0.00 0.00 0.00 72 1018.7
20260502051424 59 175 1.0 1.0 0.00 0.00 0.00 72 1018.6
20260502050920 59 181 1.0 1.0 0.00 0.00 0.00 71 1018.6
20260502050416 60 214 2.0 2.0 0.00 0.00 0.00 70 1018.5
20260502045914 61 198 2.0 2.0 0.00 0.00 0.00 68 1018.6
20260502045411 62 165 0.0 1.0 0.00 0.00 0.00 66 1018.6
20260502044908 61 140 1.0 2.0 0.00 0.00 0.00 64 1018.3
20260502044403 61 148 0.0 1.0 0.00 0.00 0.00 66 1018.4
20260502043900 61 147 0.0 1.0 0.00 0.00 0.00 67 1018.2
20260502043358 61 153 0.0 2.0 0.00 0.00 0.00 67 1018.4
20260502042857 60 133 1.0 6.0 0.00 0.00 0.00 66 1018.3
20260502042355 60 137 0.0 1.0 0.00 0.00 0.00 70 1018.1
20260502041852 60 147 0.0 1.0 0.00 0.00 0.00 71 1018.2
20260502041349 61 127 0.0 1.0 0.00 0.00 0.00 71 1018.1
20260502040847 60 125 2.0 2.0 0.00 0.00 0.00 71 1018.2
20260502040344 60 153 1.0 3.0 0.00 0.00 0.00 69 1018.1
20260502035839 60 145 1.0 1.0 0.00 0.00 0.00 72 1018.0
20260502035336 60 155 0.0 0.0 0.00 0.00 0.00 71 1017.8
20260502034834 60 168 1.0 3.0 0.00 0.00 0.00 71 1017.8
20260502034332 61 178 1.0 2.0 0.00 0.00 0.00 70 1017.8
20260502033830 61 170 0.0 1.0 0.00 0.00 0.00 70 1017.7
20260502033327 61 186 1.0 2.0 0.00 0.00 0.00 69 1017.6
20260502032824 61 149 0.0 1.0 0.00 0.00 0.00 69 1017.4
20260502032320 62 158 1.0 2.0 0.00 0.00 0.00 67 1017.4
20260502031818 62 158 0.0 0.0 0.00 0.00 0.00 67 1017.5
20260502031316 62 158 0.0 1.0 0.00 0.00 0.00 66 1017.5
20260502030814 63 165 0.0 1.0 0.00 0.00 0.00 65 1017.3
20260502030312 63 167 1.0 1.0 0.00 0.00 0.00 63 1017.2
20260502025809 64 165 0.0 1.0 0.00 0.00 0.00 62 1017.4
20260502025307 65 170 0.0 1.0 0.00 0.00 0.00 62 1017.3
20260502024804 66 171 1.0 2.0 0.00 0.00 0.00 58 1017.2
20260502024302 67 184 2.0 2.0 0.00 0.00 0.00 53 1017.1
20260502023800 67 159 0.0 1.0 0.00 0.00 0.00 55 1017.0
20260502023257 68 148 0.0 2.0 0.00 0.00 0.00 53 1017.2
20260502022755 68 172 1.0 2.0 0.00 0.00 0.00 50 1017.0
20260502022250 68 153 2.0 5.0 0.00 0.00 0.00 50 1016.8
20260502021748 68 153 1.0 2.0 0.00 0.00 0.00 48 1016.9
20260502021245 68 136 1.0 2.0 0.00 0.00 0.00 50 1017.0
20260502020742 68 159 1.0 3.0 0.00 0.00 0.00 49 1016.8
20260502020240 68 146 1.0 3.0 0.00 0.00 0.00 48 1016.9
20260502015737 68 159 3.0 5.0 0.00 0.00 0.00 47 1016.9
20260502015233 68 160 1.0 1.0 0.00 0.00 0.00 49 1016.9
20260502014731 68 184 1.0 3.0 0.00 0.00 0.00 47 1017.1
20260502014228 68 180 1.0 2.0 0.00 0.00 0.00 47 1017.1
20260502013724 69 158 3.0 5.0 0.00 0.00 0.00 47 1017.0
20260502013220 69 182 1.0 2.0 0.00 0.00 0.00 46 1017.2
20260502012717 70 143 1.0 7.0 0.00 0.00 0.00 46 1016.9
20260502012215 69 207 3.0 6.0 0.00 0.00 0.00 45 1016.8
20260502011711 70 117 3.0 5.0 0.00 0.00 0.00 45 1017.2
20260502011207 70 337 4.0 9.0 0.00 0.00 0.00 44 1017.0
20260502010705 71 66 3.0 7.0 0.00 0.00 0.00 44 1017.1
20260502010201 71 149 1.0 5.0 0.00 0.00 0.00 43 1017.3
20260502005658 71 204 2.0 2.0 0.00 0.00 0.00 43 1017.0
20260502005156 71 169 2.0 2.0 0.00 0.00 0.00 44 1017.2
20260502004652 71 159 2.0 2.0 0.00 0.00 0.00 45 1017.1
20260502004149 71 154 3.0 6.0 0.00 0.00 0.00 44 1017.2
20260502003647 72 359 7.0 8.0 0.00 0.00 0.00 42 1016.8
20260502003143 72 131 1.0 2.0 0.00 0.00 0.00 44 1017.1
20260502002639 72 104 2.0 5.0 0.00 0.00 0.00 43 1017.1